Regional Weather Roundup
Issued by NWS Newport/Morehead, NC

Current Version | Previous Version | Text Only | Print | Product List | Glossary Off
Versions: 1 2 3 4 5 6 7 8 9 10 11 12 13 14 15 16 17 18 19 20 21 22 23 24 25 26 27 28 29 30 31 32 33 34 35 36 37 38 39 40 41 42 43 44 45 46 47 48 49 50
000 ASUS42 KMHX 051913 RWRMHX WEATHER ROUNDUP FOR EASTERN NORTH CAROLINA NATIONAL WEATHER SERVICE NEWPORT/MOREHEAD CITY NC 300 PM EDT SUN JUL 05 2015 NOTE: "FAIR" INDICATES FEW OR NO CLOUDS BELOW 12,000 FEET WITH NO SIGNIFICANT WEATHER AND/OR OBSTRUCTIONS TO VISIBILITY NCZ015>017-031-032-045>047-102-103-052000- NORTH COAST CITY SKY/WX TMP DP RH WIND PRES REMARKS EDENTON N/A 87 74 65 S6 30.10S ELIZABETH CITY PTSUNNY 82 73 74 N8 30.11R KITTY HAWK PTCLDY 90 73 57 E8 30.11S MANTEO MOSUNNY 85 75 72 S10 30.11F $$ NCZ045>047-081-094-103-104-052000- CENTRAL COAST CITY SKY/WX TMP DP RH WIND PRES REMARKS FRISCO SUNNY 83 75 77 SW12 30.14F SWANQUARTER N/A 88 N/A N/A SE9G16 30.09S $$ NCZ095-097-098-100-101-052000- SOUTHERN COAST CITY SKY/WX TMP DP RH WIND PRES REMARKS BEAUFORT MOSUNNY 85 76 74 SW16 30.14S CEDAR ISLAND N/A 90 N/A N/A SE6G18 30.15F JACKSONVILLE SUNNY 88 72 58 S13 30.11F PINEY ISLAND CLEAR N/A N/A N/A S13 30.12F WILMINGTON SUNNY 90 67 46 SW8 30.12S $$ NCZ011>013-027>030-043-044-078>080-089-090>093-098-052000- COASTAL PLAIN CITY SKY/WX TMP DP RH WIND PRES REMARKS AHOSKIE MOSUNNY N/A N/A N/A S3 30.08F CLINTON MOSUNNY 89 72 56 S6 30.10F ELIZABETHTOWN MOSUNNY 89 69 51 SE7 30.11F GOLDSBORO SUNNY 90 72 54 S7 30.07F GREENVILLE SUNNY 90 70 51 W5 30.11F HAVELOCK SUNNY 89 69 51 S12G20 30.13S KENANSVILLE MOSUNNY 89 66 46 SE5 30.11F KINSTON MOSUNNY 91 70 49 S10 30.10F NEW BERN MOSUNNY 91 72 53 SW12 30.12F RICHLANDS MOSUNNY 93 68 43 S10G16 30.11F ROCKY MOUNT MOSUNNY 89 71 55 S9 30.09F WASHINGTON MOSUNNY 87 72 61 SE6 30.11S WHITEVILLE PTSUNNY 89 70 53 S12 30.11S $$ AMZ130-135-150-152-154-156-158-170-250-252-270-ANZ085-086-088-633-658-670-052000- MARINE OBSERVATIONS STATION/POSITION TIME TEMP WIND PRES WAVE SWELL AIR SEA DIR/SP/G HT/PER HT/PER (UTC) (F) (DEG/KT/KT) (MB) (FT/S) (FT/S) CHESAPEAKE LIGHT 1900 76 100/ 7/ 8 1020.9 64 E VA BEACH 1850 77 78 120/ 6/ 6 1019.8 4/ 6 3/ 6 DUCK 1800 83 78 90/ 6/ 8 N/A 2 E DUCK 1811 80 N/A 2/ 6 OREGON INLET 1800 83 79 160/ 7/ 8 1020.2 13E OREGON INLT 1900 80 N/A 3/ 6 HATTERAS CG 1800 82 80 200/ 10/ 13 1020.5 DIAMOND BUOY 1850 81 81 220/ 12/ 14 1020.6 3/ 5 2/ 9 CAPE LOOKOUT 1900 82 200/ 13/ 15 1020.4 BEAUFORT LAB 1800 82 80 210/ 10/ 14 1020.0 30 SE NEW RVR IN NOT AVBL 27 SE WRIGHTSVLE 1800 80 220/ 10/ 12 N/A 5 SE WRIGHTSVLE 1808 80 79 200/ 14/ 16 1020.8 225 S CAPE HAT 1850 80 80 200/ 10/ 12 1023.1 4/ 9 3/ 9 41 SE CHARLESTON 1850 82 83 190/ 12/ 16 1020.6 3/ 9 2/ 9 $$

USA.gov is the U.S. government's official web portal to all federal, state and local government web resources and services.